GFSCGP_850_thetae_159.txt.gz
Theta_e
320 318 318 318 320 315 316 318 319 317 317 318 318 318 317 317 317 317 319 319 320 320 320 321 321 320 322 323 326 327 327 327 331 332 331 332 332 331 331 330 328 322 319 318
318 318 314 313 317 319 317 317 316 316 316 316 315 316 315 315 315 316 316 317 318 319 320 320 320 320 320 321 324 327 327 327 328 330 330 330 329 328 330 331 331 328 323 321
313 312 314 314 316 320 320 320 316 317 317 315 316 318 316 314 316 318 318 319 319 320 321 321 320 320 320 320 322 325 326 326 327 328 331 331 332 330 329 330 331 331 329 325
314 313 314 315 315 317 318 318 315 317 318 317 316 316 315 314 314 314 317 318 319 320 320 319 319 319 320 320 320 320 324 326 327 329 330 331 331 329 323 324 327 329 330 329
314 313 314 316 316 316 315 316 317 316 316 318 317 318 316 315 315 314 315 317 318 318 318 318 318 319 321 320 320 320 320 322 326 328 329 329 331 328 326 324 324 325 327 328
311 312 313 314 314 316 314 315 316 315 316 318 315 317 316 316 314 314 316 318 318 317 317 318 318 320 321 320 320 320 321 321 323 327 328 330 328 328 328 327 326 327 329 329
312 312 311 315 315 314 317 318 320 321 319 319 313 318 317 312 311 312 313 317 315 316 317 317 316 318 318 320 322 322 323 323 325 328 329 330 330 330 329 329 329 330 331 331
310 311 312 311 315 316 317 317 317 314 317 316 313 319 317 313 315 315 316 315 316 316 315 309 308 308 311 314 317 319 322 324 326 328 328 329 330 331 331 331 329 329 330 330
310 310 310 311 312 314 316 319 313 313 305 311 313 314 313 312 312 314 314 315 314 313 308 307 307 306 307 307 308 312 314 315 320 325 327 328 328 329 329 330 330 329 327 326
307 309 308 311 313 312 314 313 317 317 317 315 314 315 314 313 313 310 309 311 312 309 307 307 305 305 305 305 305 307 309 311 311 311 312 313 314 317 320 321 324 326 326 326
305 306 308 308 312 314 315 314 313 312 314 312 311 313 309 311 311 309 308 311 309 308 307 306 304 304 304 304 305 309 310 309 309 308 308 309 311 312 313 313 313 314 320 322
306 305 308 310 307 310 312 313 313 314 313 312 312 311 309 309 309 308 310 308 308 307 307 306 304 304 305 305 306 307 307 307 304 303 303 303 303 306 309 311 312 313 313 313
308 306 303 309 310 309 312 312 312 311 308 312 315 312 307 306 305 308 308 307 307 306 307 304 304 304 304 304 304 303 302 301 301 301 301 301 301 301 301 302 305 309 311 311
309 305 309 308 308 310 312 312 312 313 314 312 313 312 309 307 305 305 306 307 306 304 303 303 303 303 302 302 301 301 301 300 300 301 300 300 299 299 299 300 301 302 303 305
309 309 303 305 306 309 310 311 311 314 314 313 312 311 309 307 306 307 308 306 302 301 301 300 300 300 301 300 299 299 299 299 299 299 299 299 299 299 299 299 299 300 300 302
307 309 305 303 305 305 303 310 310 312 313 312 310 309 308 308 307 300 298 299 297 296 296 296 295 295 295 296 296 297 298 298 299 299 299 299 299 299 299 299 299 299 299 300
309 306 308 310 305 305 303 305 307 309 307 311 312 312 306 302 297 294 293 293 292 292 292 293 294 294 294 294 295 296 297 297 298 299 299 299 300 299 299 299 299 298 299 299
309 308 307 303 303 309 305 301 303 306 304 305 303 295 294 294 290 289 289 289 289 290 290 290 292 294 294 294 295 295 296 297 298 298 298 298 299 299 299 299 298 298 298 299
308 307 300 306 305 300 302 300 302 303 304 293 293 290 290 291 290 286 286 287 287 287 287 287 289 290 291 292 293 295 296 296 297 297 297 297 297 297 297 297 297 297 297 298
308 307 306 295 304 302 301 296 296 300 304 287 289 287 287 289 294 289 284 285 285 285 286 287 287 288 288 289 290 291 292 292 293 293 293 292 292 292 292 292 293 294 294 296
308 308 308 298 295 295 294 290 294 301 298 285 284 283 284 286 284 284 283 284 284 284 284 284 286 287 286 287 288 289 288 287 287 287 288 288 289 289 289 290 289 290 291 292
307 307 305 297 301 303 282 290 299 289 284 283 281 280 280 280 281 282 282 282 282 283 284 285 285 286 285 286 286 286 285 284 285 285 285 285 285 285 286 287 288 288 286 287
305 304 303 302 300 282 281 282 281 284 282 279 279 278 278 278 278 279 279 279 280 282 284 284 284 285 284 284 282 282 282 281 280 280 281 281 281 282 282 283 284 284 283 283
293 292 292 291 283 281 279 278 279 280 280 278 278 278 278 277 276 276 278 279 280 280 281 281 281 281 281 281 281 279 278 277 277 277 279 279 279 279 278 278 279 279 280 281
287 291 289 286 282 279 278 277 276 277 277 277 277 276 277 276 276 277 277 277 278 278 279 279 279 279 279 279 278 277 276 276 277 278 278 278 278 279 280 281 281 281 281 278
280 285 294 293 282 283 280 276 276 276 276 277 277 276 276 276 276 277 277 276 276 277 277 278 277 277 277 278 278 277 276 276 276 277 278 279 279 279 278 279 281 282 282 278

GFSCGP_850_thetae_162.txt.gz
Theta_e
316 315 315 315 317 313 311 316 316 315 316 319 317 317 317 317 316 317 318 318 317 315 318 319 319 320 320 321 320 320 322 326 327 330 331 331 329 329 329 329 330 331 330 328
316 316 311 312 315 316 315 315 315 315 315 316 315 314 313 313 314 315 316 315 317 318 316 315 316 318 319 320 319 319 320 323 327 327 329 330 330 329 329 329 328 329 331 331
311 311 312 313 315 318 318 317 314 315 315 314 315 315 312 312 314 315 316 318 318 319 319 319 319 319 320 319 319 319 320 322 325 326 327 330 331 331 330 329 328 325 326 329
312 309 312 313 314 316 317 316 314 315 316 314 314 310 310 311 313 313 315 317 318 318 319 319 319 319 318 319 319 319 319 320 322 324 326 327 330 330 329 328 328 328 328 327
312 311 310 313 313 315 314 315 316 314 314 316 314 315 312 314 315 313 313 316 317 317 317 317 317 317 318 319 320 320 319 319 320 321 324 326 328 329 330 331 331 330 327 326
310 312 311 311 312 313 312 313 315 314 317 317 314 314 311 310 312 313 314 316 316 316 316 317 317 318 319 320 321 319 319 319 320 321 325 328 329 330 331 331 331 331 329 328
312 311 311 313 313 313 314 314 311 315 317 314 309 313 312 310 310 310 310 314 315 316 316 312 312 313 316 319 321 321 321 322 324 326 327 328 329 330 331 331 331 331 330 330
312 312 311 310 314 314 315 314 309 309 312 313 311 316 313 312 313 313 313 314 314 314 309 308 308 307 308 312 315 320 322 324 325 327 327 328 329 329 330 329 330 329 329 329
310 310 307 309 312 313 314 316 312 312 306 309 311 311 312 311 311 312 313 313 313 309 308 306 306 306 306 308 309 311 312 314 318 322 325 326 326 326 327 328 328 327 327 326
306 308 308 309 312 312 312 312 315 315 314 315 312 313 314 312 310 309 308 310 310 307 306 306 305 305 307 308 307 307 307 306 305 306 308 309 311 312 313 314 314 314 314 315
304 305 307 310 312 312 313 314 312 311 314 314 310 312 309 311 311 308 307 310 307 307 306 304 305 305 306 306 306 305 304 303 303 302 301 302 302 303 305 307 308 309 310 311
304 304 308 310 306 309 311 312 313 313 312 313 311 310 307 307 308 307 309 307 307 307 304 304 304 304 303 303 303 303 302 302 301 300 300 300 300 300 300 301 301 301 302 303
306 307 306 309 309 309 311 311 311 310 306 311 312 312 306 306 305 308 307 306 305 303 302 302 302 302 302 301 301 301 301 301 300 300 300 300 300 300 300 299 299 299 299 299
308 306 308 308 308 308 311 311 311 312 312 312 311 309 308 305 303 304 305 304 303 301 301 300 300 300 300 299 300 300 300 299 300 300 300 300 300 300 300 300 300 300 300 299
308 309 306 306 306 307 308 310 311 311 312 311 310 310 310 304 303 303 304 300 299 299 298 297 297 297 297 297 298 298 298 299 299 299 300 300 300 300 300 300 300 300 300 300
308 308 305 302 305 306 306 308 309 311 311 311 309 308 306 306 304 299 298 298 297 295 294 294 294 295 295 296 296 296 297 298 298 299 299 299 299 299 299 299 299 299 299 299
308 309 309 309 305 306 306 307 308 309 310 311 312 310 303 298 296 294 294 294 292 291 292 292 293 293 294 294 294 295 296 297 297 297 296 296 296 297 298 298 297 297 297 298
309 309 308 306 307 310 306 302 307 309 308 309 304 302 301 298 290 289 289 289 288 288 289 290 290 291 291 292 291 292 292 293 293 293 294 294 295 295 295 295 295 296 296 297
308 308 303 304 308 303 302 301 302 306 308 300 305 292 288 287 287 284 285 286 286 287 287 288 289 289 289 289 290 291 291 291 291 292 292 292 292 293 293 294 294 294 295 295
308 308 308 297 307 308 302 296 294 301 305 289 292 291 289 290 296 287 283 284 284 285 286 287 287 287 286 287 288 289 289 289 289 289 290 290 290 291 291 291 292 292 292 293
309 309 308 304 305 300 297 291 293 302 300 286 288 286 288 289 285 283 282 283 283 283 284 285 284 284 284 285 286 286 286 287 287 287 287 288 288 288 289 289 289 289 290 290
309 308 307 302 303 305 285 291 301 291 285 284 283 283 283 283 281 282 282 282 282 283 283 283 283 282 281 282 284 285 285 285 285 286 286 286 286 286 286 286 286 286 285 286
307 304 300 301 300 283 282 282 283 285 283 281 282 281 282 281 280 280 280 280 280 281 281 281 282 282 281 281 281 282 283 284 284 285 285 285 285 284 284 283 283 283 283 284
293 293 295 291 284 282 279 278 281 282 281 280 280 280 280 280 279 279 279 279 280 280 279 280 281 282 282 282 281 281 281 281 282 282 283 282 282 283 282 282 282 281 281 281
291 293 289 285 281 280 279 278 278 278 279 279 279 279 279 278 278 278 278 278 278 277 278 279 279 279 279 279 278 278 278 277 278 278 279 279 279 280 280 280 280 279 279 278
283 290 294 295 283 284 280 277 277 277 276 277 277 277 277 278 277 277 277 277 277 277 277 277 277 277 277 277 277 276 276 276 275 275 275 276 276 277 277 277 279 280 280 279

GFSCGP_850_thetae_165.txt.gz
Theta_e
316 313 313 314 316 310 309 314 314 313 314 317 316 317 317 317 317 317 318 318 318 318 315 314 312 314 319 319 319 320 320 319 319 322 327 327 328 330 331 332 331 330 329 330
314 314 310 310 312 314 313 313 313 314 314 315 314 315 314 313 314 316 317 317 317 316 313 311 313 313 316 316 318 319 320 319 319 320 323 326 327 328 330 331 331 331 330 330
311 310 311 311 313 316 316 315 313 312 313 312 313 311 313 311 313 313 314 314 314 313 313 314 317 318 318 319 319 319 319 319 319 319 321 324 327 327 328 328 330 330 331 331
312 309 310 312 313 314 315 314 312 314 313 311 310 307 307 307 309 311 313 314 315 316 316 317 318 318 319 319 318 318 318 317 318 319 320 322 325 327 327 328 329 331 331 330
311 309 310 311 312 313 312 314 314 313 314 315 313 314 310 312 312 312 312 315 315 316 316 316 316 317 317 317 318 318 320 320 319 319 319 321 324 326 328 329 330 330 331 331
309 310 307 308 309 313 310 312 313 313 315 315 311 313 309 310 312 312 314 315 315 315 314 315 315 316 317 318 319 319 320 318 318 319 321 323 325 327 329 330 330 331 331 331
310 310 310 310 311 311 312 311 309 314 316 313 309 312 311 308 309 309 311 314 313 315 315 312 311 312 315 318 320 321 320 320 322 324 326 328 328 329 329 330 330 330 330 329
311 311 310 309 310 312 314 313 309 308 309 311 308 313 311 309 310 311 311 312 312 314 309 308 307 309 311 316 319 322 323 324 325 327 330 329 329 327 328 328 327 327 326 327
311 311 307 309 311 311 313 315 309 311 307 309 309 309 311 310 310 312 313 311 312 309 306 306 306 307 308 309 310 313 316 319 321 322 323 322 324 325 325 326 326 326 326 326
307 309 307 309 312 311 311 311 314 313 310 309 311 311 312 311 310 308 309 310 310 306 305 305 305 305 304 304 303 303 304 305 305 307 308 309 309 309 310 310 311 311 311 311
303 305 307 309 312 313 313 313 312 311 311 310 309 308 307 310 309 309 307 310 306 304 304 304 304 303 302 302 302 301 301 301 301 301 300 300 301 301 301 302 302 302 301 302
304 304 308 310 306 308 312 312 312 313 313 312 311 310 306 306 307 308 307 305 304 303 302 302 301 301 301 301 301 301 301 301 300 300 300 300 299 299 299 299 299 299 299 299
307 308 309 310 309 308 309 310 311 310 306 312 314 312 306 306 305 307 304 303 302 302 301 300 300 300 300 300 300 300 300 300 300 300 300 300 300 300 300 300 300 300 300 300
308 307 309 309 308 307 311 310 310 311 313 312 311 310 306 305 305 303 302 301 300 300 300 300 299 299 299 300 299 299 299 299 300 299 300 300 300 301 301 300 300 300 300 300
308 310 309 307 304 306 308 310 309 311 311 311 310 308 309 304 303 302 302 299 299 298 298 298 298 298 297 297 298 301 300 297 298 298 298 300 299 299 300 300 300 300 300 299
308 310 308 308 305 305 307 307 309 310 310 310 309 307 307 304 304 301 299 298 297 296 295 295 295 295 295 295 296 296 296 296 297 297 297 298 298 297 297 298 298 298 298 298
308 309 309 309 306 306 308 308 307 309 309 310 311 310 303 300 303 299 298 297 295 293 292 292 292 292 292 293 294 294 295 295 295 294 294 294 294 293 294 294 295 295 296 296
308 308 309 307 307 309 307 303 306 307 308 308 308 306 304 302 294 295 295 294 292 290 290 290 289 289 290 291 291 292 292 292 292 291 291 290 291 291 292 292 293 293 294 294
307 309 310 309 309 305 304 300 303 305 307 305 308 293 288 289 291 286 288 290 289 288 288 288 288 288 288 288 289 289 289 289 289 290 290 290 290 290 290 291 291 291 291 292
307 308 309 303 308 309 304 298 298 303 307 296 301 292 288 292 299 289 286 286 286 286 286 286 286 286 286 287 287 288 288 287 288 288 288 288 288 288 288 289 289 289 290 290
308 309 309 305 307 304 299 293 295 305 304 289 294 293 290 293 287 285 283 284 284 284 284 284 284 285 286 286 286 286 286 286 286 286 286 286 286 286 286 286 286 287 288 288
308 309 309 304 305 306 289 292 301 294 285 287 288 289 288 285 281 282 282 282 282 283 282 283 284 284 284 284 284 284 284 284 284 283 283 283 283 283 283 283 284 284 284 285
306 305 303 304 302 284 282 283 285 286 285 284 286 286 289 284 282 281 281 281 281 282 283 283 283 283 283 282 281 281 281 281 281 281 282 282 282 282 281 281 281 281 281 282
294 292 293 293 285 282 280 280 283 284 284 284 284 284 284 283 280 280 279 280 281 281 282 282 282 281 280 279 279 279 279 279 279 280 280 280 280 280 280 279 279 279 279 279
294 294 289 285 281 280 280 281 282 282 283 283 281 281 282 281 279 280 280 281 281 281 281 280 280 279 278 278 278 278 278 278 278 278 278 278 278 277 277 277 277 276 276 276
287 294 298 300 285 288 283 280 281 282 280 281 280 279 279 281 281 280 279 279 280 279 278 278 278 277 277 277 276 276 276 276 275 275 275 275 275 275 274 274 275 275 275 274

GFSCGP_850_thetae_168.txt.gz
Theta_e
314 314 314 314 316 310 310 315 313 314 315 319 318 318 317 317 319 319 318 318 319 318 317 314 313 313 313 312 314 317 319 320 320 320 320 321 326 327 327 329 329 331 331 331
315 314 310 311 314 315 311 312 313 315 316 317 315 316 316 316 316 316 316 316 316 316 316 315 315 313 312 312 313 318 318 319 320 320 319 319 320 323 327 328 329 330 331 332
312 311 311 312 313 315 315 313 311 310 316 316 317 314 314 315 315 315 315 315 315 315 315 314 314 311 312 317 316 316 316 318 319 319 319 319 319 321 325 327 328 329 330 331
313 311 312 312 310 312 311 313 314 313 313 310 313 309 311 310 312 314 314 314 314 314 314 314 315 316 315 317 318 318 319 318 317 317 317 318 318 320 325 327 328 329 330 331
313 313 312 313 312 312 311 313 315 314 314 313 312 313 310 313 311 313 315 316 316 316 316 315 316 316 317 317 317 317 317 317 318 319 318 318 319 321 326 327 327 329 330 330
312 311 312 312 312 313 313 315 316 316 316 316 311 312 311 311 311 312 315 315 315 315 314 315 315 315 316 317 317 318 318 318 319 318 318 319 322 324 327 327 328 329 330 331
313 312 311 310 312 313 314 315 315 316 316 315 310 312 311 311 311 311 313 314 313 314 314 313 313 312 315 317 319 320 320 320 320 320 323 325 326 328 329 329 329 329 330 330
314 314 313 311 311 313 314 313 312 311 313 312 312 312 312 312 311 311 312 312 313 312 312 309 309 312 315 319 320 322 323 323 324 325 326 327 327 327 327 327 327 327 327 327
313 312 311 312 311 312 313 314 310 308 309 313 311 312 311 312 312 311 314 312 312 309 306 307 308 310 312 315 316 318 319 321 322 322 323 324 325 325 325 326 326 326 326 326
311 312 310 311 312 311 313 312 313 313 311 311 309 310 311 313 313 313 313 313 311 306 305 305 304 304 304 305 306 307 309 310 311 313 315 316 317 318 318 317 318 316 315 313
310 311 310 311 313 314 312 314 313 312 312 311 309 309 309 310 312 314 314 313 309 305 303 302 301 301 301 301 301 301 301 301 302 302 302 301 302 302 302 302 302 301 301 301
311 310 312 311 311 312 313 313 314 314 313 312 311 311 310 311 311 312 312 311 306 303 301 301 301 299 299 299 299 300 300 300 300 300 299 299 299 299 299 299 300 300 300 300
311 309 313 311 310 309 313 314 313 313 312 315 315 312 311 310 310 309 309 306 303 300 298 299 299 299 299 299 300 300 300 300 300 300 300 300 300 300 300 300 300 300 300 300
310 311 311 312 311 311 312 313 313 314 315 313 314 312 312 310 311 307 306 303 301 299 297 296 297 297 298 298 298 299 299 300 301 301 300 300 300 301 300 300 300 300 300 299
310 311 311 311 310 309 311 312 313 314 314 314 314 313 313 312 310 307 305 302 299 298 297 295 295 295 295 296 297 297 298 298 299 300 300 299 299 301 299 298 298 298 297 298
310 313 311 310 310 310 310 311 311 312 313 314 313 312 312 311 309 307 303 301 299 298 295 294 295 295 295 295 296 296 295 295 295 297 298 297 296 297 297 296 295 295 295 294
309 310 311 312 310 310 309 309 311 311 311 312 313 312 311 309 307 305 303 301 299 295 292 293 293 293 293 293 293 293 294 295 296 295 295 294 293 293 292 292 292 293 293 294
308 309 310 312 310 312 310 309 308 310 311 311 311 311 311 311 305 304 303 300 297 292 290 290 291 291 292 292 292 292 292 292 292 291 291 290 291 290 291 291 291 291 291 291
307 309 311 312 311 310 308 305 308 309 309 309 310 310 310 297 295 292 296 295 292 289 289 290 290 291 291 290 290 290 290 290 290 289 289 289 289 289 288 288 288 288 287 287
306 308 309 309 310 311 309 305 304 308 309 308 308 309 304 296 305 308 291 293 292 291 290 289 288 288 288 288 288 288 288 288 288 288 287 287 286 285 285 285 285 285 285 285
308 308 310 311 310 310 308 297 303 309 309 306 307 307 297 302 303 298 290 288 289 288 287 286 286 286 286 286 286 286 286 287 286 285 284 284 284 284 284 284 283 284 284 284
308 309 311 310 311 310 296 297 307 302 291 292 295 300 296 293 288 285 283 285 284 285 285 284 285 285 284 285 285 285 285 284 284 283 283 283 282 282 282 282 282 281 281 282
308 308 310 310 308 289 287 288 287 288 288 287 290 291 291 286 283 281 282 282 283 284 284 284 284 284 284 283 282 282 282 282 282 282 281 281 281 281 281 281 281 280 280 280
299 296 303 301 292 288 284 283 286 288 289 290 291 290 289 287 283 282 281 281 282 282 282 282 283 282 281 280 281 281 281 281 281 280 280 280 280 279 279 279 278 277 276 276
298 297 296 295 285 283 283 283 286 286 286 287 287 287 286 285 280 281 279 280 280 281 281 281 281 280 279 279 279 279 279 279 279 278 278 277 277 277 278 278 277 276 275 274
293 296 301 304 290 291 289 286 284 284 284 284 285 282 282 283 281 280 280 280 280 280 280 279 279 279 279 278 278 278 277 277 276 276 276 277 277 277 276 275 275 275 274 273